Location: *
(28.3744°N, 81.5492°W)
Time: 04:19:56
(UTC+00:00)

CZ-3 R/B - Pass Details

Date: 15 June 2025
Orbit: 533 x 10023 km, 28.2° (Epoch: 11 July)

Event Time Altitude Azimuth Distance (km) Brightness Sun altitude
Exits shadow 08:58:56 20° 228° (SW) 7,493 5.3 -17.3°
Maximum altitude 09:16:32 51° 165° (SSE) 2,708 3.6 -14.3°
Drops below altitude 10° 09:24:19 10° 91° (E) 3,178 5.0 -12.9°
Sets 09:26:13 0° 85° (E) 3,758 5.7 -12.6°
